| time (UTC) | temp F | wind direction | speed knots | gust knots | rain 1hr in | rain 24hr in | rain mn in | humidity % | barometer mb |
| 20260509085059 | 72 | 173 | 0.0 | 1.7 | 0.00 | 0.00 | 0.00 | 93 | 1011.0 |
| 20260509084554 | 72 | 173 | 0.0 | 0.9 | 0.00 | 0.00 | 0.00 | 93 | 1010.9 |
| 20260509084048 | 72 | 173 | 0.0 | 0.9 | 0.00 | 0.00 | 0.00 | 93 | 1010.9 |
| 20260509083542 | 72 | 173 | 0.0 | 0.0 | 0.00 | 0.00 | 0.00 | 93 | 1011.0 |
| 20260509083036 | 72 | 173 | 0.0 | 0.0 | 0.00 | 0.00 | 0.00 | 93 | 1011.1 |
| 20260509082529 | 72 | 173 | 0.0 | 0.9 | 0.00 | 0.00 | 0.00 | 93 | 1011.1 |
| 20260509082024 | 72 | 173 | 0.0 | 2.6 | 0.00 | 0.00 | 0.00 | 93 | 1011.2 |
| 20260509081518 | 72 | 173 | 0.0 | 2.6 | 0.00 | 0.00 | 0.00 | 93 | 1011.3 |
| 20260509081244 | 72 | 173 | 0.9 | 2.6 | 0.00 | 0.00 | 0.00 | 93 | 1011.3 |
| 20260509080738 | 72 | 173 | 0.9 | 2.6 | 0.00 | 0.00 | 0.00 | 93 | 1011.4 |
| 20260509080000 | 72 | 173 | 0.9 | 2.6 | 0.00 | 0.00 | 0.00 | 93 | 1011.4 |
| 20260509075453 | 72 | 173 | 0.9 | 5.2 | 0.00 | 0.00 | 0.00 | 93 | 1011.4 |
| 20260509074948 | 72 | 173 | 0.9 | 5.2 | 0.00 | 0.00 | 0.00 | 93 | 1011.3 |
| 20260509074442 | 72 | 168 | 0.9 | 5.2 | 0.00 | 0.00 | 0.00 | 93 | 1011.2 |
| 20260509074208 | 72 | 169 | 1.7 | 5.2 | 0.00 | 0.00 | 0.00 | 93 | 1011.0 |
| 20260509073430 | 72 | 166 | 0.9 | 5.2 | 0.00 | 0.00 | 0.00 | 93 | 1010.9 |
| 20260509072923 | 72 | 112 | 0.0 | 2.6 | 0.00 | 0.00 | 0.00 | 93 | 1011.0 |
| 20260509072418 | 72 | 112 | 0.0 | 1.7 | 0.00 | 0.00 | 0.00 | 93 | 1011.2 |
| 20260509071406 | 72 | 112 | 0.0 | 3.5 | 0.00 | 0.00 | 0.00 | 93 | 1011.2 |
| 20260509070900 | 72 | 112 | 0.9 | 3.5 | 0.00 | 0.00 | 0.00 | 92 | 1011.1 |
| 20260509070354 | 72 | 112 | 0.9 | 3.5 | 0.00 | 0.00 | 0.00 | 92 | 1011.1 |
| 20260509065847 | 72 | 111 | 0.9 | 2.6 | 0.00 | 0.00 | 0.00 | 92 | 1011.2 |
| 20260509065342 | 72 | 111 | 0.9 | 2.6 | 0.00 | 0.00 | 0.00 | 92 | 1011.2 |
| 20260509065107 | 72 | 111 | 0.9 | 2.6 | 0.00 | 0.00 | 0.00 | 92 | 1011.3 |
| 20260509064601 | 72 | 111 | 0.0 | 1.7 | 0.00 | 0.00 | 0.00 | 92 | 1011.5 |
| 20260509064054 | 72 | 111 | 0.0 | 1.7 | 0.00 | 0.00 | 0.00 | 92 | 1011.6 |
| 20260509063318 | 72 | 111 | 0.9 | 2.6 | 0.00 | 0.00 | 0.00 | 92 | 1011.5 |
| 20260509062812 | 72 | 111 | 0.9 | 3.5 | 0.00 | 0.00 | 0.00 | 92 | 1011.7 |
| 20260509062308 | 72 | 111 | 0.9 | 3.5 | 0.00 | 0.00 | 0.00 | 92 | 1011.6 |
| 20260509061808 | 72 | 111 | 0.9 | 3.5 | 0.00 | 0.00 | 0.00 | 92 | 1011.6 |
| 20260509061307 | 72 | 111 | 0.9 | 3.5 | 0.00 | 0.00 | 0.00 | 92 | 1011.7 |
| 20260509060806 | 72 | 110 | 0.0 | 1.7 | 0.00 | 0.00 | 0.00 | 92 | 1011.8 |
| 20260509060536 | 72 | 110 | 0.9 | 2.6 | 0.00 | 0.00 | 0.00 | 91 | 1011.9 |
| 20260509060032 | 72 | 110 | 0.9 | 2.6 | 0.00 | 0.00 | 0.00 | 91 | 1011.9 |
| 20260509055300 | 72 | 109 | 0.9 | 2.6 | 0.00 | 0.00 | 0.00 | 91 | 1011.9 |
| 20260509054800 | 72 | 109 | 0.9 | 2.6 | 0.00 | 0.00 | 0.00 | 91 | 1012.0 |
| 20260509054300 | 71 | 109 | 0.9 | 3.5 | 0.00 | 0.00 | 0.00 | 91 | 1011.8 |
| 20260509053758 | 71 | 109 | 0.0 | 3.5 | 0.00 | 0.00 | 0.00 | 91 | 1012.0 |
| 20260509053257 | 71 | 109 | 0.0 | 0.0 | 0.00 | 0.00 | 0.00 | 91 | 1012.0 |
| 20260509052758 | 71 | 109 | 0.0 | 0.0 | 0.00 | 0.00 | 0.00 | 91 | 1012.1 |
| 20260509052258 | 71 | 109 | 0.0 | 0.0 | 0.00 | 0.00 | 0.00 | 91 | 1012.2 |
| 20260509051258 | 71 | 109 | 0.0 | 0.9 | 0.00 | 0.00 | 0.00 | 91 | 1012.4 |
| 20260509050801 | 71 | 109 | 0.0 | 0.9 | 0.00 | 0.00 | 0.00 | 91 | 1012.4 |
| 20260509050300 | 71 | 109 | 0.0 | 0.9 | 0.00 | 0.00 | 0.00 | 91 | 1012.4 |
| 20260509045800 | 71 | 109 | 0.0 | 0.9 | 0.00 | 0.00 | 0.00 | 91 | 1012.2 |
| 20260509045527 | 71 | 109 | 0.0 | 0.9 | 0.00 | 0.00 | 0.00 | 91 | 1012.2 |
| 20260509044753 | 71 | 109 | 0.0 | 2.6 | 0.00 | 0.00 | 0.00 | 91 | 1012.2 |
| 20260509044251 | 71 | 109 | 0.9 | 2.6 | 0.00 | 0.00 | 0.00 | 91 | 1012.1 |
| 20260509043751 | 71 | 109 | 0.9 | 2.6 | 0.00 | 0.00 | 0.00 | 91 | 1012.0 |
| 20260509043523 | 71 | 109 | 0.9 | 2.6 | 0.00 | 0.00 | 0.00 | 91 | 1012.0 |
| 20260509042750 | 71 | 109 | 0.0 | 2.6 | 0.00 | 0.00 | 0.00 | 91 | 1012.0 |
| 20260509042249 | 71 | 107 | 0.0 | 2.6 | 0.00 | 0.00 | 0.00 | 91 | 1012.0 |
| 20260509041749 | 71 | 107 | 0.0 | 2.6 | 0.00 | 0.00 | 0.00 | 91 | 1011.8 |
| 20260509041247 | 71 | 107 | 0.0 | 0.0 | 0.00 | 0.00 | 0.00 | 90 | 1011.7 |
| 20260509040745 | 71 | 107 | 0.0 | 0.0 | 0.00 | 0.00 | 0.00 | 90 | 1011.8 |
| 20260509040244 | 71 | 107 | 0.0 | 0.0 | 0.00 | 0.00 | 0.00 | 90 | 1011.6 |
| 20260509035745 | 71 | 107 | 0.0 | 0.0 | 0.00 | 0.00 | 0.00 | 89 | 1011.5 |
| 20260509035239 | 71 | 107 | 0.0 | 0.9 | 0.00 | 0.00 | 0.00 | 89 | 1011.5 |
| 20260509034733 | 71 | 107 | 0.9 | 5.2 | 0.00 | 0.00 | 0.00 | 89 | 1011.3 |
| 20260509034227 | 71 | 107 | 0.9 | 5.2 | 0.00 | 0.00 | 0.00 | 89 | 1011.2 |
| 20260509033721 | 71 | 110 | 0.9 | 1.7 | 0.00 | 0.00 | 0.00 | 89 | 1011.0 |
| 20260509033215 | 71 | 110 | 0.9 | 2.6 | 0.00 | 0.00 | 0.00 | 89 | 1011.0 |
| 20260509032941 | 71 | 110 | 0.0 | 2.6 | 0.00 | 0.00 | 0.00 | 89 | 1011.0 |
| 20260509032203 | 71 | 110 | 0.0 | 1.7 | 0.00 | 0.00 | 0.00 | 88 | 1011.0 |
| 20260509031658 | 71 | 110 | 0.0 | 3.5 | 0.00 | 0.00 | 0.00 | 88 | 1010.9 |
| 20260509031151 | 71 | 110 | 0.0 | 3.5 | 0.00 | 0.00 | 0.00 | 88 | 1011.1 |
| 20260509030918 | 71 | 111 | 0.0 | 2.6 | 0.00 | 0.00 | 0.00 | 88 | 1011.2 |
| 20260509030139 | 71 | 111 | 0.0 | 2.6 | 0.00 | 0.00 | 0.00 | 88 | 1011.1 |
| 20260509025633 | 71 | 111 | 0.9 | 3.5 | 0.00 | 0.00 | 0.00 | 88 | 1011.1 |
| 20260509025127 | 71 | 111 | 0.9 | 3.5 | 0.00 | 0.00 | 0.00 | 88 | 1011.1 |
| 20260509024622 | 71 | 111 | 0.0 | 2.6 | 0.00 | 0.00 | 0.00 | 88 | 1011.1 |
| 20260509024351 | 71 | 111 | 0.0 | 2.6 | 0.00 | 0.00 | 0.00 | 88 | 1011.0 |
| 20260509023618 | 71 | 111 | 0.0 | 2.6 | 0.00 | 0.00 | 0.00 | 88 | 1010.9 |
| 20260509023119 | 71 | 111 | 0.0 | 0.0 | 0.00 | 0.00 | 0.00 | 87 | 1010.9 |
| 20260509022619 | 71 | 111 | 0.0 | 0.0 | 0.00 | 0.00 | 0.00 | 86 | 1010.8 |
| 20260509022119 | 71 | 111 | 0.0 | 0.0 | 0.00 | 0.00 | 0.00 | 86 | 1010.7 |
| 20260509021617 | 72 | 111 | 0.0 | 0.0 | 0.00 | 0.00 | 0.00 | 86 | 1010.6 |
| 20260509021117 | 72 | 111 | 0.0 | 0.9 | 0.00 | 0.00 | 0.00 | 86 | 1010.7 |
| 20260509020617 | 72 | 111 | 0.0 | 0.9 | 0.00 | 0.00 | 0.00 | 86 | 1010.7 |
| 20260509020117 | 72 | 111 | 0.9 | 2.6 | 0.00 | 0.00 | 0.00 | 85 | 1010.6 |
| 20260509015616 | 72 | 111 | 0.9 | 3.5 | 0.00 | 0.00 | 0.00 | 85 | 1010.4 |
| 20260509015116 | 72 | 111 | 0.9 | 3.5 | 0.00 | 0.00 | 0.00 | 85 | 1010.4 |
| 20260509014617 | 72 | 111 | 0.9 | 2.6 | 0.00 | 0.00 | 0.00 | 85 | 1010.2 |
| 20260509013617 | 73 | 111 | 0.0 | 2.6 | 0.00 | 0.00 | 0.00 | 84 | 1010.1 |
| 20260509013116 | 73 | 111 | 0.0 | 2.6 | 0.00 | 0.00 | 0.00 | 84 | 1010.0 |
| 20260509012617 | 73 | 111 | 0.0 | 2.6 | 0.00 | 0.00 | 0.00 | 84 | 1009.9 |
| 20260509012117 | 73 | 111 | 0.0 | 2.6 | 0.00 | 0.00 | 0.00 | 83 | 1010.0 |
| 20260509011847 | 74 | 111 | 0.0 | 0.0 | 0.00 | 0.00 | 0.00 | 83 | 1010.0 |
| 20260509011348 | 74 | 111 | 0.0 | 0.0 | 0.00 | 0.00 | 0.00 | 83 | 1009.9 |
| 20260509010617 | 74 | 111 | 0.0 | 0.0 | 0.00 | 0.00 | 0.00 | 83 | 1010.0 |
| 20260509010347 | 74 | 111 | 0.0 | 0.0 | 0.00 | 0.00 | 0.00 | 82 | 1010.0 |
| 20260509005615 | 74 | 111 | 0.0 | 1.7 | 0.00 | 0.00 | 0.00 | 82 | 1010.0 |
| 20260509005349 | 74 | 111 | 0.0 | 1.7 | 0.00 | 0.00 | 0.00 | 82 | 1009.8 |
| 20260509004611 | 74 | 111 | 0.0 | 2.6 | 0.00 | 0.00 | 0.00 | 81 | 1009.8 |
| 20260509004108 | 75 | 111 | 0.9 | 2.6 | 0.00 | 0.00 | 0.00 | 81 | 1009.8 |
| 20260509003606 | 75 | 111 | 0.9 | 2.6 | 0.00 | 0.00 | 0.00 | 81 | 1009.9 |
| 20260509003108 | 75 | 111 | 0.0 | 2.6 | 0.00 | 0.00 | 0.00 | 80 | 1009.9 |
| 20260509002603 | 75 | 111 | 0.0 | 2.6 | 0.00 | 0.00 | 0.00 | 80 | 1009.8 |
| 20260509002101 | 75 | 111 | 0.9 | 3.5 | 0.00 | 0.00 | 0.00 | 80 | 1009.9 |
| 20260509001601 | 75 | 111 | 0.9 | 3.5 | 0.00 | 0.00 | 0.00 | 79 | 1009.9 |
| 20260509001101 | 76 | 113 | 0.9 | 2.6 | 0.00 | 0.00 | 0.00 | 79 | 1009.9 |
| 20260509000558 | 76 | 113 | 0.0 | 2.6 | 0.00 | 0.00 | 0.00 | 79 | 1009.9 |
| 20260509000056 | 76 | 113 | 0.0 | 2.6 | 0.00 | 0.00 | 0.00 | 78 | 1009.9 |
| 20260508235554 | 76 | 113 | 0.0 | 1.7 | 0.00 | 0.00 | 0.00 | 79 | 1010.0 |
| 20260508235053 | 76 | 113 | 0.0 | 1.7 | 0.00 | 0.00 | 0.00 | 79 | 1010.0 |
| 20260508234550 | 76 | 113 | 0.0 | 3.5 | 0.00 | 0.00 | 0.00 | 80 | 1010.0 |
| 20260508234048 | 76 | 113 | 0.0 | 3.5 | 0.00 | 0.00 | 0.00 | 80 | 1010.0 |
| 20260508233549 | 75 | 113 | 0.0 | 2.6 | 0.00 | 0.00 | 0.00 | 80 | 1010.0 |
| 20260508233051 | 75 | 113 | 0.9 | 2.6 | 0.00 | 0.00 | 0.00 | 80 | 1010.0 |
| 20260508232815 | 75 | 113 | 0.9 | 2.6 | 0.00 | 0.00 | 0.00 | 79 | 1010.0 |
| 20260508232039 | 75 | 113 | 0.9 | 2.6 | 0.00 | 0.00 | 0.00 | 79 | 1010.0 |
| 20260508231532 | 75 | 113 | 0.9 | 2.6 | 0.00 | 0.00 | 0.00 | 79 | 1010.0 |
| 20260508231028 | 75 | 113 | 0.9 | 2.6 | 0.00 | 0.00 | 0.00 | 79 | 1010.0 |
| 20260508230520 | 75 | 113 | 0.9 | 5.2 | 0.00 | 0.00 | 0.00 | 79 | 1010.0 |
| 20260508230015 | 75 | 113 | 0.9 | 5.2 | 0.00 | 0.00 | 0.00 | 79 | 1010.0 |
| 20260508225508 | 75 | 112 | 0.9 | 3.5 | 0.00 | 0.00 | 0.00 | 79 | 1009.9 |
| 20260508225002 | 76 | 112 | 1.7 | 5.2 | 0.00 | 0.00 | 0.00 | 78 | 1009.9 |
| 20260508224457 | 76 | 113 | 1.7 | 5.2 | 0.00 | 0.00 | 0.00 | 79 | 1010.0 |
| 20260508223950 | 76 | 112 | 0.9 | 5.2 | 0.00 | 0.00 | 0.00 | 79 | 1010.0 |
| 20260508223716 | 76 | 112 | 0.9 | 5.2 | 0.00 | 0.00 | 0.00 | 79 | 1010.1 |
| 20260508223210 | 75 | 112 | 0.9 | 6.1 | 0.00 | 0.00 | 0.00 | 79 | 1010.2 |
| 20260508222432 | 75 | 111 | 1.7 | 6.1 | 0.00 | 0.00 | 0.00 | 80 | 1010.2 |
| 20260508221926 | 74 | 111 | 1.7 | 3.5 | 0.00 | 0.00 | 0.00 | 80 | 1010.4 |
| 20260508221421 | 74 | 111 | 1.7 | 5.2 | 0.00 | 0.00 | 0.00 | 81 | 1010.4 |
| 20260508221145 | 74 | 111 | 0.9 | 5.2 | 0.00 | 0.00 | 0.00 | 81 | 1010.4 |
| 20260508220409 | 74 | 111 | 0.9 | 5.2 | 0.00 | 0.00 | 0.00 | 81 | 1010.4 |
| 20260508215904 | 74 | 111 | 0.9 | 5.2 | 0.00 | 0.00 | 0.00 | 81 | 1010.5 |
| 20260508215357 | 74 | 112 | 1.7 | 3.5 | 0.00 | 0.00 | 0.00 | 81 | 1010.5 |
| 20260508215122 | 74 | 112 | 1.7 | 5.2 | 0.00 | 0.00 | 0.00 | 80 | 1010.5 |
| 20260508214346 | 74 | 112 | 1.7 | 5.2 | 0.00 | 0.00 | 0.00 | 80 | 1010.5 |
| 20260508213839 | 75 | 111 | 1.7 | 5.2 | 0.00 | 0.00 | 0.00 | 80 | 1010.6 |
| 20260508213333 | 75 | 111 | 1.7 | 7.0 | 0.00 | 0.00 | 0.00 | 80 | 1010.6 |
| 20260508212827 | 75 | 115 | 2.6 | 7.0 | 0.00 | 0.00 | 0.00 | 79 | 1010.6 |
| 20260508212321 | 75 | 123 | 1.7 | 6.1 | 0.00 | 0.00 | 0.00 | 79 | 1010.7 |
| 20260508211815 | 75 | 73 | 1.7 | 6.1 | 0.00 | 0.00 | 0.00 | 79 | 1010.7 |
| 20260508211309 | 75 | 120 | 1.7 | 5.2 | 0.00 | 0.00 | 0.00 | 79 | 1010.8 |
| 20260508210803 | 75 | 117 | 1.7 | 5.2 | 0.00 | 0.00 | 0.00 | 79 | 1011.0 |
| 20260508210256 | 75 | 113 | 1.7 | 5.2 | 0.00 | 0.00 | 0.00 | 79 | 1011.0 |
| 20260508205750 | 75 | 126 | 1.7 | 5.2 | 0.00 | 0.00 | 0.00 | 79 | 1011.1 |
| 20260508205245 | 75 | 128 | 0.9 | 5.2 | 0.00 | 0.00 | 0.00 | 79 | 1011.1 |
| 20260508204739 | 75 | 114 | 0.9 | 3.5 | 0.00 | 0.00 | 0.00 | 79 | 1011.3 |
| 20260508204233 | 75 | 113 | 1.7 | 5.2 | 0.00 | 0.00 | 0.00 | 79 | 1011.3 |
| 20260508203727 | 75 | 113 | 1.7 | 5.2 | 0.00 | 0.00 | 0.00 | 79 | 1011.4 |
| 20260508203221 | 75 | 113 | 1.7 | 5.2 | 0.00 | 0.00 | 0.00 | 79 | 1011.4 |
| 20260508202714 | 75 | 115 | 1.7 | 6.1 | 0.00 | 0.00 | 0.00 | 79 | 1011.4 |
| 20260508202208 | 75 | 123 | 1.7 | 7.0 | 0.00 | 0.00 | 0.00 | 78 | 1011.4 |
| 20260508201702 | 75 | 121 | 1.7 | 6.1 | 0.00 | 0.00 | 0.00 | 78 | 1011.3 |
| 20260508201427 | 75 | 108 | 1.7 | 6.1 | 0.00 | 0.00 | 0.00 | 78 | 1011.3 |
| 20260508200651 | 75 | 165 | 1.7 | 7.0 | 0.00 | 0.00 | 0.00 | 78 | 1011.4 |
| 20260508200145 | 76 | 99 | 1.7 | 7.0 | 0.00 | 0.00 | 0.00 | 78 | 1011.3 |
| 20260508195910 | 76 | 154 | 1.7 | 7.0 | 0.00 | 0.00 | 0.00 | 78 | 1011.4 |
| 20260508195132 | 76 | 80 | 1.7 | 7.0 | 0.00 | 0.00 | 0.00 | 78 | 1011.4 |
| 20260508194626 | 75 | 82 | 1.7 | 4.3 | 0.00 | 0.00 | 0.00 | 79 | 1011.5 |
| 20260508194120 | 75 | 81 | 1.7 | 4.3 | 0.00 | 0.00 | 0.00 | 78 | 1011.5 |
| 20260508193615 | 76 | 81 | 1.7 | 7.0 | 0.00 | 0.00 | 0.00 | 78 | 1011.6 |
| 20260508193109 | 75 | 74 | 1.7 | 7.0 | 0.00 | 0.00 | 0.00 | 78 | 1011.5 |
| 20260508192559 | 75 | 75 | 1.7 | 7.0 | 0.00 | 0.00 | 0.00 | 78 | 1011.6 |
| 20260508192325 | 75 | 82 | 1.7 | 7.8 | 0.00 | 0.00 | 0.00 | 78 | 1011.6 |
| 20260508191550 | 76 | 117 | 1.7 | 7.8 | 0.00 | 0.00 | 0.00 | 77 | 1011.6 |
| 20260508191043 | 76 | 166 | 1.7 | 7.0 | 0.00 | 0.00 | 0.00 | 78 | 1011.6 |
| 20260508190543 | 76 | 167 | 1.7 | 7.0 | 0.00 | 0.00 | 0.00 | 78 | 1011.7 |
| 20260508190040 | 75 | 76 | 1.7 | 6.1 | 0.00 | 0.00 | 0.00 | 79 | 1011.7 |
| 20260508185540 | 75 | 106 | 1.7 | 4.3 | 0.00 | 0.00 | 0.00 | 79 | 1011.8 |
| 20260508185040 | 75 | 102 | 1.7 | 3.5 | 0.00 | 0.00 | 0.00 | 79 | 1011.9 |
| 20260508184540 | 75 | 103 | 0.9 | 3.5 | 0.00 | 0.00 | 0.00 | 79 | 1011.9 |
| 20260508184040 | 75 | 132 | 0.9 | 4.3 | 0.00 | 0.00 | 0.00 | 79 | 1012.1 |
| 20260508183539 | 75 | 132 | 1.7 | 6.1 | 0.00 | 0.00 | 0.00 | 79 | 1012.1 |
| 20260508183040 | 74 | 56 | 1.7 | 6.1 | 0.00 | 0.00 | 0.00 | 78 | 1012.1 |
| 20260508182540 | 74 | 129 | 1.7 | 5.2 | 0.00 | 0.00 | 0.00 | 80 | 1012.1 |
| 20260508181536 | 73 | 124 | 1.7 | 7.0 | 0.00 | 0.00 | 0.00 | 82 | 1012.2 |
| 20260508181035 | 72 | 124 | 1.7 | 7.0 | 0.00 | 0.00 | 0.00 | 82 | 1012.4 |
| 20260508180535 | 72 | 74 | 1.7 | 4.3 | 0.00 | 0.00 | 0.00 | 83 | 1012.4 |
| 20260508180036 | 71 | 71 | 0.9 | 4.3 | 0.00 | 0.00 | 0.00 | 83 | 1012.7 |
| 20260508175538 | 71 | 63 | 0.9 | 3.5 | 0.00 | 0.00 | 0.00 | 84 | 1012.8 |
| 20260508175039 | 71 | 61 | 0.9 | 3.5 | 0.00 | 0.00 | 0.00 | 83 | 1012.9 |
| 20260508174538 | 71 | 59 | 0.9 | 3.5 | 0.00 | 0.00 | 0.00 | 83 | 1013.0 |
| 20260508174039 | 70 | 59 | 0.9 | 2.6 | 0.00 | 0.00 | 0.00 | 83 | 1013.1 |
| 20260508173531 | 70 | 59 | 0.9 | 2.6 | 0.00 | 0.00 | 0.00 | 83 | 1013.2 |
| 20260508173025 | 70 | 59 | 0.9 | 2.6 | 0.00 | 0.00 | 0.00 | 84 | 1013.2 |
| 20260508172520 | 70 | 56 | 0.0 | 2.6 | 0.00 | 0.00 | 0.00 | 84 | 1013.2 |
| 20260508172011 | 70 | 56 | 0.0 | 0.9 | 0.00 | 0.00 | 0.00 | 84 | 1013.3 |
| 20260508171505 | 70 | 56 | 0.0 | 0.9 | 0.00 | 0.00 | 0.00 | 84 | 1013.3 |
| 20260508171002 | 69 | 56 | 0.0 | 2.6 | 0.00 | 0.00 | 0.00 | 84 | 1013.4 |
| 20260508170455 | 69 | 56 | 0.9 | 3.5 | 0.00 | 0.00 | 0.00 | 84 | 1013.4 |
| 20260508165949 | 69 | 56 | 0.9 | 3.5 | 0.00 | 0.00 | 0.00 | 84 | 1013.4 |
| 20260508165444 | 69 | 55 | 0.0 | 2.6 | 0.00 | 0.00 | 0.00 | 84 | 1013.4 |
| 20260508164938 | 69 | 55 | 0.0 | 2.6 | 0.00 | 0.00 | 0.00 | 84 | 1013.4 |
| 20260508164432 | 69 | 55 | 0.9 | 2.6 | 0.00 | 0.00 | 0.00 | 84 | 1013.5 |
| 20260508163926 | 68 | 55 | 0.9 | 2.6 | 0.00 | 0.00 | 0.00 | 85 | 1013.6 |
| 20260508163419 | 68 | 55 | 0.0 | 2.6 | 0.00 | 0.00 | 0.00 | 85 | 1013.8 |
| 20260508162913 | 68 | 55 | 0.9 | 3.5 | 0.00 | 0.00 | 0.00 | 85 | 1013.7 |
| 20260508162408 | 67 | 55 | 0.9 | 3.5 | 0.00 | 0.00 | 0.00 | 85 | 1013.7 |
| 20260508161901 | 67 | 55 | 0.9 | 3.5 | 0.00 | 0.00 | 0.00 | 86 | 1013.7 |
| 20260508161355 | 67 | 55 | 1.7 | 5.2 | 0.00 | 0.00 | 0.00 | 87 | 1013.7 |
| 20260508160850 | 66 | 57 | 1.7 | 5.2 | 0.00 | 0.00 | 0.00 | 87 | 1013.8 |
| 20260508160344 | 66 | 55 | 0.9 | 3.5 | 0.00 | 0.00 | 0.00 | 87 | 1013.9 |
| 20260508155837 | 65 | 56 | 0.9 | 3.5 | 0.00 | 0.00 | 0.00 | 88 | 1013.9 |
| 20260508155331 | 65 | 57 | 0.9 | 3.5 | 0.00 | 0.00 | 0.00 | 88 | 1014.0 |
| 20260508154826 | 65 | 56 | 0.9 | 4.3 | 0.00 | 0.00 | 0.00 | 88 | 1014.2 |
| 20260508154320 | 64 | 56 | 0.9 | 4.3 | 0.00 | 0.00 | 0.00 | 87 | 1014.2 |
| 20260508153814 | 64 | 57 | 0.9 | 3.5 | 0.00 | 0.00 | 0.00 | 88 | 1014.3 |
| 20260508153308 | 64 | 57 | 0.9 | 3.5 | 0.00 | 0.00 | 0.00 | 87 | 1014.3 |
| 20260508152801 | 64 | 57 | 0.9 | 4.3 | 0.00 | 0.00 | 0.00 | 87 | 1014.4 |
| 20260508152256 | 64 | 58 | 0.9 | 4.3 | 0.00 | 0.00 | 0.00 | 87 | 1014.4 |
| 20260508151750 | 64 | 58 | 0.9 | 3.5 | 0.00 | 0.00 | 0.00 | 87 | 1014.7 |
| 20260508151244 | 64 | 59 | 0.9 | 3.5 | 0.00 | 0.00 | 0.00 | 87 | 1014.5 |
| 20260508150737 | 64 | 59 | 0.9 | 4.3 | 0.00 | 0.00 | 0.00 | 87 | 1014.6 |
| 20260508150231 | 64 | 59 | 0.9 | 4.3 | 0.00 | 0.00 | 0.00 | 88 | 1014.6 |
| 20260508145725 | 64 | 59 | 0.9 | 3.5 | 0.00 | 0.00 | 0.00 | 88 | 1014.7 |
| 20260508145220 | 63 | 59 | 0.9 | 5.2 | 0.00 | 0.00 | 0.00 | 88 | 1014.7 |
| 20260508144944 | 63 | 59 | 1.7 | 5.2 | 0.00 | 0.00 | 0.00 | 88 | 1014.6 |
| 20260508144208 | 63 | 60 | 1.7 | 5.2 | 0.00 | 0.00 | 0.00 | 88 | 1014.5 |
| 20260508143701 | 63 | 62 | 0.9 | 4.3 | 0.00 | 0.00 | 0.00 | 88 | 1014.6 |
| 20260508143155 | 62 | 65 | 0.9 | 4.3 | 0.00 | 0.00 | 0.00 | 88 | 1014.6 |
| 20260508142922 | 62 | 65 | 0.9 | 4.3 | 0.00 | 0.00 | 0.00 | 88 | 1014.6 |
| 20260508142143 | 62 | 68 | 1.7 | 4.3 | 0.00 | 0.00 | 0.00 | 88 | 1014.7 |
| 20260508141637 | 62 | 68 | 1.7 | 5.2 | 0.00 | 0.00 | 0.00 | 88 | 1014.7 |
| 20260508141131 | 62 | 69 | 1.7 | 5.2 | 0.00 | 0.00 | 0.00 | 87 | 1014.6 |
| 20260508140626 | 62 | 71 | 0.9 | 4.3 | 0.00 | 0.00 | 0.00 | 87 | 1014.7 |
| 20260508140119 | 62 | 73 | 0.9 | 4.3 | 0.00 | 0.00 | 0.00 | 87 | 1014.8 |
| 20260508135613 | 62 | 73 | 1.7 | 4.3 | 0.00 | 0.00 | 0.00 | 87 | 1014.8 |
| 20260508135109 | 62 | 76 | 1.7 | 4.3 | 0.00 | 0.00 | 0.00 | 87 | 1014.9 |
| 20260508134602 | 62 | 76 | 0.9 | 4.3 | 0.00 | 0.00 | 0.00 | 87 | 1014.7 |
| 20260508134329 | 62 | 78 | 0.9 | 3.5 | 0.00 | 0.00 | 0.00 | 87 | 1014.7 |
| 20260508133559 | 62 | 78 | 0.9 | 3.5 | 0.00 | 0.00 | 0.00 | 87 | 1014.5 |
| 20260508133100 | 62 | 78 | 0.9 | 3.5 | 0.00 | 0.00 | 0.00 | 87 | 1014.4 |
| 20260508132557 | 61 | 80 | 0.9 | 3.5 | 0.00 | 0.00 | 0.00 | 87 | 1014.4 |
| 20260508132328 | 61 | 80 | 0.9 | 3.5 | 0.00 | 0.00 | 0.00 | 87 | 1014.3 |
| 20260508131553 | 61 | 80 | 0.9 | 2.6 | 0.00 | 0.00 | 0.00 | 87 | 1014.4 |
| 20260508131051 | 61 | 59 | 0.0 | 1.7 | 0.00 | 0.00 | 0.00 | 87 | 1014.2 |
| 20260508130551 | 61 | 55 | 0.0 | 1.7 | 0.00 | 0.00 | 0.00 | 87 | 1014.3 |
| 20260508130052 | 61 | 55 | 0.0 | 1.7 | 0.00 | 0.00 | 0.00 | 88 | 1014.1 |
| 20260508125549 | 61 | 55 | 0.9 | 2.6 | 0.00 | 0.00 | 0.00 | 87 | 1014.0 |
| 20260508125047 | 61 | 55 | 0.9 | 3.5 | 0.00 | 0.00 | 0.00 | 87 | 1014.2 |
| 20260508124816 | 61 | 55 | 0.9 | 3.5 | 0.00 | 0.00 | 0.00 | 87 | 1014.4 |
| 20260508124047 | 61 | 55 | 0.9 | 2.6 | 0.00 | 0.00 | 0.00 | 87 | 1014.5 |
| 20260508123541 | 61 | 55 | 0.0 | 1.7 | 0.00 | 0.00 | 0.00 | 87 | 1014.7 |
| 20260508123040 | 61 | 55 | 0.9 | 2.6 | 0.00 | 0.00 | 0.00 | 87 | 1014.5 |
| 20260508122537 | 61 | 55 | 0.9 | 2.6 | 0.00 | 0.00 | 0.00 | 86 | 1014.5 |
| 20260508122035 | 61 | 55 | 0.9 | 2.6 | 0.00 | 0.00 | 0.00 | 86 | 1014.5 |
| 20260508121533 | 61 | 55 | 0.9 | 2.6 | 0.00 | 0.00 | 0.00 | 86 | 1014.4 |
| 20260508121032 | 61 | 55 | 0.0 | 1.7 | 0.00 | 0.00 | 0.00 | 85 | 1014.4 |
| 20260508120529 | 62 | 55 | 0.0 | 3.5 | 0.00 | 0.00 | 0.00 | 85 | 1014.6 |
| 20260508120300 | 62 | 55 | 0.9 | 4.3 | 0.00 | 0.00 | 0.00 | 84 | 1014.7 |
| 20260508115529 | 62 | 55 | 1.7 | 4.3 | 0.00 | 0.00 | 0.00 | 83 | 1014.9 |
| 20260508115029 | 62 | 55 | 0.9 | 3.5 | 0.00 | 0.00 | 0.00 | 83 | 1015.0 |
| 20260508114528 | 62 | 55 | 0.9 | 3.5 | 0.00 | 0.00 | 0.00 | 83 | 1014.9 |
| 20260508114028 | 62 | 55 | 1.7 | 4.3 | 0.00 | 0.00 | 0.00 | 83 | 1015.3 |
| 20260508113529 | 62 | 55 | 0.9 | 4.3 | 0.00 | 0.00 | 0.00 | 84 | 1014.8 |
| 20260508113029 | 62 | 51 | 0.9 | 5.2 | 0.00 | 0.00 | 0.00 | 85 | 1014.8 |
| 20260508112529 | 62 | 52 | 0.9 | 5.2 | 0.00 | 0.00 | 0.00 | 85 | 1014.8 |
| 20260508112028 | 62 | 50 | 0.9 | 4.3 | 0.00 | 0.00 | 0.00 | 85 | 1014.5 |
| 20260508111528 | 62 | 49 | 1.7 | 5.2 | 0.00 | 0.00 | 0.00 | 85 | 1014.4 |
| 20260508111029 | 62 | 38 | 1.7 | 5.2 | 0.00 | 0.00 | 0.00 | 85 | 1014.6 |
| 20260508110529 | 62 | 66 | 1.7 | 5.2 | 0.00 | 0.00 | 0.00 | 85 | 1014.9 |
| 20260508110029 | 62 | 67 | 0.9 | 2.6 | 0.00 | 0.00 | 0.00 | 85 | 1014.8 |
| 20260508105527 | 62 | 67 | 0.9 | 2.6 | 0.00 | 0.00 | 0.00 | 85 | 1014.8 |
| 20260508105026 | 62 | 67 | 0.9 | 3.5 | 0.00 | 0.00 | 0.00 | 85 | 1014.7 |
| 20260508104526 | 62 | 67 | 0.9 | 3.5 | 0.00 | 0.00 | 0.00 | 85 | 1014.6 |
| 20260508104027 | 62 | 67 | 0.9 | 3.5 | 0.00 | 0.00 | 0.00 | 84 | 1014.6 |
| 20260508103525 | 62 | 60 | 0.9 | 3.5 | 0.00 | 0.00 | 0.00 | 85 | 1014.7 |
| 20260508103024 | 62 | 59 | 0.9 | 3.5 | 0.00 | 0.00 | 0.00 | 85 | 1015.0 |
| 20260508102518 | 62 | 59 | 0.0 | 3.5 | 0.00 | 0.00 | 0.00 | 85 | 1015.3 |
| 20260508102012 | 62 | 59 | 0.0 | 3.5 | 0.00 | 0.00 | 0.00 | 85 | 1015.3 |
| 20260508101506 | 62 | 59 | 0.0 | 2.6 | 0.00 | 0.00 | 0.00 | 85 | 1015.0 |
| 20260508101001 | 62 | 59 | 0.0 | 1.7 | 0.00 | 0.00 | 0.00 | 85 | 1014.7 |
| 20260508095948 | 62 | 59 | 0.0 | 2.6 | 0.00 | 0.00 | 0.00 | 85 | 1014.5 |
| 20260508095442 | 62 | 59 | 0.0 | 1.7 | 0.00 | 0.00 | 0.00 | 85 | 1014.6 |
| 20260508094936 | 62 | 59 | 0.0 | 3.5 | 0.00 | 0.00 | 0.00 | 85 | 1014.7 |
| 20260508094701 | 62 | 59 | 0.9 | 3.5 | 0.00 | 0.00 | 0.00 | 85 | 1014.6 |
| 20260508093418 | 62 | 59 | 0.9 | 5.2 | 0.00 | 0.00 | 0.00 | 85 | 1014.6 |
| 20260508092912 | 62 | 61 | 0.9 | 5.2 | 0.00 | 0.00 | 0.00 | 84 | 1014.6 |
| 20260508092405 | 62 | 66 | 0.0 | 2.6 | 0.00 | 0.00 | 0.00 | 84 | 1014.5 |
| 20260508091900 | 62 | 66 | 0.9 | 2.6 | 0.00 | 0.00 | 0.00 | 83 | 1014.4 |
| 20260508091354 | 63 | 66 | 0.9 | 3.5 | 0.00 | 0.00 | 0.00 | 83 | 1014.0 |
| 20260508090847 | 63 | 66 | 0.9 | 3.5 | 0.00 | 0.00 | 0.00 | 82 | 1013.7 |
| 20260508090342 | 63 | 66 | 0.9 | 2.6 | 0.00 | 0.00 | 0.00 | 82 | 1013.9 |
| 20260508090107 | 63 | 65 | 0.9 | 4.3 | 0.00 | 0.00 | 0.00 | 81 | 1014.7 |
| 20260508085330 | 63 | 65 | 0.9 | 4.3 | 0.00 | 0.00 | 0.00 | 81 | 1015.0 |